Regional Weather Roundup
Issued by NWS

Home | Current Version | Previous Version | Graphics & Text | Print | Product List | Glossary On
Versions: 1 2 3 4 5 6 7 8 9 10 11 12 13 14 15 16 17 18 19 20 21 22 23 24 25 26 27 28 29 30 31 32 33 34 35 36 37 38 39 40 41 42 43 44 45 46 47 48 49 50
000
ASUS43 KFSD 241610
RWRSD

WEATHER ROUNDUP FOR SOUTH DAKOTA
NATIONAL WEATHER SERVICE SIOUX FALLS SD
1100 AM CDT TUE APR 24 2018

NOTE: "FAIR" INDICATES FEW OR NO CLOUDS BELOW 12,000 FEET WITH NO
SIGNIFICANT WEATHER AND/OR OBSTRUCTIONS TO VISIBILITY.


SDZ001>005-009-010-012>017-241700-
NORTHWEST AND NORTH CENTRAL SOUTH DAKOTA

CITY           SKY/WX    TMP DP  RH WIND       PRES   REMARKS
BUFFALO          N/A     43  32  65 N15       30.42R
FAITH            N/A     41  34  76 N22       30.43S
MOBRIDGE       CLOUDY    42  37  82 N12       30.40R
$$

SDZ012>016-024>037-041>051-057-063-072>074-241700-
SOUTHWEST AND SOUTH CENTRAL SOUTH DAKOTA

CITY           SKY/WX    TMP DP  RH WIND       PRES   REMARKS
RAPID CTY ARPT CLOUDY    39  32  76 N28G33    30.45F
PIERRE         LGT RAIN  37  36  96 N18       30.37R FOG
CUSTER         CLOUDY    32  19  58 N10G21    30.40R WCI  24
ELLSWORTH AFB  CLOUDY    40  34  81 NW28      30.45
PHILIP         CLOUDY    37  36  96 N24       30.43S
PINE RIDGE     MIX PCPN  35  33  92 N13G23    30.45R WCI  26
SPEARFISH      CLOUDY    36  32  87 NW7       30.50R
WINNER         LGT RAIN  42  39  89 N24G32    30.29R FOG
$$

SDZ004>011-016>023-039-040-241700-
NORTHEAST SOUTH DAKOTA

CITY           SKY/WX    TMP DP  RH WIND       PRES   REMARKS
ABERDEEN       LGT RAIN  41  39  93 N15       30.37R
WATERTOWN      LGT RAIN  42  40  92 NE20G28   30.27S
BROOKINGS      LGT RAIN  43  38  82 NE20G29   30.24R
SISSETON         N/A     43  41  93 N13       30.33R
$$

SDZ017-020-022-023-036>040-048>070-241700-
SOUTHEAST SOUTH DAKOTA

CITY           SKY/WX    TMP DP  RH WIND       PRES   REMARKS
SIOUX FALLS    CLOUDY    50  38  63 NE20      30.21S
HURON          CLOUDY    44  39  82 NE25G35   30.26R
CHAMBERLAIN    CLOUDY    45  43  94 N20G25    30.28R
MITCHELL       CLOUDY    46  41  82 NE23G32   30.24R
YANKTON        LGT RAIN  49  47  93 MISG      30.20R
$$

ABBREVIATIONS USED IN REMARKS
   TC - TEMPERATURE IN CELSIUS
  WCI - WIND CHILL INDEX
   HX - HEAT INDEX
  VSB - VISIBILITY




USA.gov is the U.S. government's official web portal to all federal, state and local government web resources and services.